Wind_Speed
25 24 25 29 29 29 28 32 34 34 37 34 35 35 37 38 38 39 39 39 39 39 40 40 40 41 41
25 25 27 26 31 29 28 29 36 30 32 35 36 37 38 37 38 38 38 39 39 40 40 41 41 41 42
28 27 27 28 29 25 32 27 27 30 34 36 36 38 35 35 37 37 38 38 40 41 41 41 41 41 41
28 30 27 26 26 27 25 26 27 31 34 37 35 35 34 36 38 37 37 37 37 37 38 38 39 39 40
26 27 25 26 24 25 26 28 34 30 31 38 26 35 36 35 35 34 33 34 36 37 38 39 40 40 41
26 24 28 26 26 26 30 27 11 28 21 43 30 35 34 33 33 36 36 34 34 36 36 37 39 39 40
30 25 28 28 30 31 29 26 28 33 30 36 32 35 34 36 34 36 37 36 33 32 33 34 36 37 39
28 27 28 32 32 28 30 31 34 30 25 17 34 36 33 35 39 35 31 27 28 31 36 36 36 37 39
27 32 33 31 29 27 24 22 17 27 26 24 23 29 36 40 30 22 26 32 32 31 32 35 37 37 38
29 28 25 25 24 24 24 20 21 18 22 16 25 21 7 22 22 34 30 30 31 32 32 35 37 35 32
25 23 24 24 25 24 25 24 25 26 37 28 24 27 17 22 28 31 35 33 32 37 34 34 34 36 36
22 23 24 25 26 28 31 31 32 35 41 35 27 27 26 19 15 30 34 36 32 34 34 33 36 35 34
21 24 24 28 32 30 30 28 30 33 35 33 31 31 28 26 22 32 31 37 36 29 30 33 34 36 32
23 26 27 27 27 26 26 27 27 30 31 27 26 28 28 28 29 30 32 18 32 30 32 34 34 31 31
23 25 26 25 26 26 26 26 22 25 29 30 27 28 31 32 26 30 28 30 29 31 30 30 33 29 27
25 24 24 25 26 27 25 23 22 24 25 28 28 27 26 22 23 22 26 27 30 32 30 21 26 31 29
24 25 25 25 26 25 24 24 23 23 26 27 24 20 12 13 30 18 21 29 30 28 26 24 23 32 31
Wind_Direction
295 300 302 304 298 298 298 297 293 297 298 296 296 295 293 292 291 289 288 286 285 284 283 282 278 276 274
298 303 299 300 299 297 297 294 295 296 299 298 297 296 294 293 292 289 286 285 285 285 283 280 277 275 273
301 301 302 300 301 297 296 294 300 299 300 298 299 296 296 295 292 290 287 287 285 283 282 280 277 275 273
302 300 299 304 299 301 304 303 301 301 298 297 299 296 296 295 293 290 289 286 285 284 282 281 278 275 272
293 298 302 308 305 308 303 308 300 297 303 296 299 296 295 295 293 293 291 289 287 285 283 281 278 274 271
295 297 299 302 308 309 305 301 301 309 308 298 300 295 296 295 294 295 293 290 287 285 284 282 279 276 273
294 297 302 304 305 297 295 300 298 299 300 290 300 296 297 296 297 297 295 290 288 287 286 284 282 280 275
296 298 298 296 290 292 299 298 295 293 294 288 298 293 299 298 299 297 292 292 292 291 289 289 288 284 279
301 298 297 299 301 302 298 297 295 297 301 295 292 301 302 296 293 295 296 298 299 297 295 293 292 289 285
304 301 301 302 300 300 297 294 296 299 300 304 300 309 304 294 299 303 303 303 302 300 298 297 296 293 285
301 304 305 303 301 298 295 291 291 286 288 301 298 297 281 294 299 301 301 302 303 300 299 298 298 296 290
306 305 305 303 303 302 297 293 287 278 290 291 281 284 286 289 293 301 300 301 300 297 295 295 301 301 296
303 301 301 301 302 301 300 296 296 291 288 287 278 282 279 280 287 292 301 305 299 294 298 301 302 301 294
301 299 301 302 300 301 300 301 298 298 301 297 294 286 281 279 281 286 294 288 294 297 300 298 301 299 296
301 301 301 301 300 303 299 297 293 299 302 307 307 296 283 276 279 283 289 292 297 303 303 300 302 304 305
302 299 299 300 300 302 301 297 295 299 301 305 307 306 302 293 282 283 294 296 300 303 301 299 301 310 314
300 300 300 299 303 300 300 298 298 301 302 304 307 305 308 310 313 306 305 301 301 302 306 304 298 306 310
Height
765 763 759 756 751 747 742 738 732 728 724 719 715 711 706 701 697 692 688 684 681 678 675 673 671 669 668
760 757 754 750 745 740 736 731 725 720 716 711 707 702 697 692 687 683 678 674 671 668 665 663 661 659 657
751 751 748 745 739 734 729 723 719 715 709 704 699 692 688 682 677 673 668 664 661 658 655 653 650 649 647
751 745 742 738 734 727 721 718 713 709 703 695 691 684 678 673 668 663 659 655 651 648 644 642 639 637 636
747 741 735 731 728 722 717 712 706 701 695 683 683 676 669 663 658 654 650 646 642 638 634 631 628 626 624
742 736 730 727 722 719 714 707 695 696 690 676 677 666 661 655 650 645 641 636 632 628 624 620 617 614 612
736 732 726 723 719 713 707 702 695 689 687 672 668 657 652 645 640 635 631 626 621 617 613 609 605 602 599
732 726 722 718 713 707 702 695 687 682 681 670 661 650 643 638 631 625 621 617 613 608 604 599 594 590 586
726 722 716 711 707 702 696 691 680 674 672 667 655 646 638 625 621 618 614 610 604 599 594 589 583 578 573
718 714 710 706 702 699 694 687 680 669 664 661 653 650 630 619 614 610 603 599 595 590 585 579 573 567 561
714 709 705 701 697 693 689 684 676 668 658 659 649 645 641 621 608 604 599 590 586 580 574 569 563 558 549
711 705 701 696 691 687 682 676 671 663 654 653 644 639 631 620 608 596 591 585 580 572 565 559 553 546 540
708 702 697 691 685 679 673 667 661 654 647 642 638 631 625 616 605 594 585 577 571 564 558 551 543 535 526
704 698 692 686 679 674 667 660 654 642 638 635 630 624 616 609 602 588 582 576 565 558 551 541 534 526 518
700 693 687 681 674 669 662 655 649 640 631 625 621 616 608 601 592 582 575 567 560 552 544 534 523 517 509
695 689 682 676 669 662 657 651 643 635 627 620 613 605 596 589 586 576 570 562 553 545 537 528 516 508 501
691 684 678 671 665 657 651 645 636 630 623 617 610 603 592 581 570 572 567 557 547 537 531 523 513 502 495